カタログに戻る

EUCLID

運用中科学VLEO
NORAD 57209·PAYLOAD·🇪🇺 EU

打ち上げ Jul 1, 2023 から Cape Canaveral Space Force Station

Loading…

次のパス (今後24時間)

TLE

古いSource: Space-Track

元期: Jul 1, 2023, 15:20 UTC

1 57209U 23092A   23182.63893389 -.00001140  36184-5  00000-0 0  9998
2 57209  36.9800 294.6018 0159500 140.4000 359.8200 16.04191078    04

AllMySatでEUCLIDをリアルタイム追跡

Download on the App Store